Lapse_Rate
6.8 6.5 6.5 6.5 6.5 6.5 6.5 6.5 6.5 6.5 6.5 6.5 6.5 6.5 6.5 6.8 7.0 6.8 7.0 7.1 5.6 4.6 5.4 3.5 2.3 1.5 0.8 1.1 0.8 1.7 0.5 0.0 0.3 0.0 0.0 0.7 1.5 1.9 2.6 2.4 2.2 2.5 2.1 2.1
6.5 6.5 6.5 6.5 6.5 6.5 6.5 6.5 6.5 6.5 6.5 6.5 6.5 6.5 6.5 6.6 6.7 7.0 7.0 7.2 6.8 5.1 4.7 3.7 2.4 1.3 0.3 0.4 0.8 2.4 1.3 -0.5 0.8 1.4 1.1 2.1 1.9 1.2 1.5 1.4 1.7 2.0 2.2 2.5
6.5 6.5 6.5 6.5 6.5 6.5 6.5 6.5 6.5 6.5 6.5 6.5 6.5 6.5 6.5 6.5 6.9 7.1 7.1 6.0 5.6 4.9 4.6 3.9 2.5 0.8 -0.2 -0.4 0.5 2.1 1.2 0.3 1.5 1.7 -0.2 -0.0 1.4 1.1 1.0 1.4 1.0 1.0 2.1 2.6
6.5 6.6 6.5 6.5 6.5 6.5 6.5 6.5 6.5 6.5 6.5 6.5 6.5 6.5 6.5 6.5 6.5 6.5 6.9 6.9 5.5 4.6 3.0 2.8 1.9 0.6 -0.1 -0.2 0.3 0.9 0.5 0.8 1.2 0.1 1.1 1.2 2.5 2.1 1.7 1.2 -0.2 -0.4 0.0 0.9
6.5 6.5 6.5 6.5 6.5 6.5 6.5 6.5 6.5 6.5 6.5 6.5 6.5 6.5 6.5 6.5 6.5 6.5 6.5 6.8 5.3 3.7 3.5 3.4 1.8 -0.3 -0.2 -0.1 0.1 0.4 0.7 0.9 0.2 1.2 2.2 2.2 2.8 3.6 1.4 0.8 0.5 -0.9 -1.4 -1.6
6.5 6.9 6.5 6.5 6.5 6.5 6.5 6.5 6.5 6.5 6.5 6.5 6.5 6.5 6.5 6.5 6.5 6.5 6.6 6.6 5.4 3.3 2.9 3.1 1.4 -0.4 0.1 0.2 0.0 -0.0 0.4 0.2 1.5 2.3 2.7 3.0 2.3 1.7 1.3 0.5 0.3 -0.5 -1.0 -1.0
6.5 6.5 6.5 6.6 6.5 6.5 6.5 6.5 6.5 6.5 6.5 6.5 6.5 6.5 6.5 6.5 6.5 6.5 6.5 6.8 5.2 3.3 3.4 3.5 3.2 1.7 1.0 0.9 0.4 0.3 0.6 0.0 0.4 1.3 1.9 2.7 2.8 1.6 2.0 0.8 0.6 0.1 -0.1 -0.2
6.5 6.5 6.5 6.5 6.5 6.5 6.5 6.5 6.5 6.5 6.5 6.5 6.5 6.5 6.5 6.5 6.6 6.8 6.0 5.9 5.1 3.5 3.8 4.1 3.9 2.5 1.0 0.8 1.1 0.9 0.7 0.1 0.4 0.7 1.0 1.8 2.3 2.2 2.1 1.6 0.5 1.2 2.0 1.7
6.5 6.5 6.5 6.5 6.5 6.5 6.5 6.5 6.5 6.5 6.5 6.5 6.5 6.5 6.5 6.5 6.5 6.6 6.7 6.1 6.6 5.4 4.9 4.7 4.0 2.7 1.8 0.6 0.9 0.7 0.2 -0.4 -0.5 -0.3 0.4 0.7 0.6 0.8 0.8 0.5 0.7 0.2 -0.1 -0.2
6.5 6.5 6.5 6.5 6.6 6.5 6.5 6.5 6.5 6.5 6.5 6.5 6.5 6.5 6.5 6.5 6.5 6.5 6.5 6.8 6.9 6.7 5.2 4.6 4.2 3.2 2.3 1.3 -0.1 -0.5 -0.1 -0.4 -1.1 -1.3 -0.6 -0.3 -0.1 -0.4 -0.6 -0.4 -0.1 -0.1 -0.5 -0.4
6.5 6.5 6.5 6.5 6.5 6.5 6.5 6.5 6.5 6.5 6.5 6.5 6.5 6.5 6.5 6.5 6.5 6.5 6.5 6.7 7.0 7.1 5.8 5.2 4.7 3.9 2.6 1.7 0.9 -0.4 -0.2 -0.1 -0.0 -0.2 -0.3 -0.3 -0.2 -0.6 -0.6 -0.2 -0.4 -0.2 -0.0 0.1
6.5 6.5 6.5 6.5 6.5 6.5 6.5 6.5 6.5 6.5 6.5 6.5 6.5 6.5 6.5 6.5 6.5 6.6 6.6 6.9 7.2 6.8 5.9 5.3 5.0 3.7 3.4 2.6 2.0 0.7 0.2 0.6 0.7 0.4 0.7 0.9 0.7 0.9 1.0 1.1 0.5 0.1 0.5 0.3
6.5 6.5 6.5 6.5 6.5 6.5 6.5 6.5 6.5 6.5 6.5 6.5 6.5 6.5 6.5 6.5 6.5 6.7 6.8 7.1 6.4 4.8 4.0 4.0 4.1 3.8 3.2 2.8 2.7 2.3 1.9 1.4 1.6 1.8 1.8 1.9 1.9 2.3 2.4 2.4 2.1 1.6 1.6 1.3
6.2 6.5 6.5 6.5 6.5 6.5 6.5 6.5 6.5 6.5 6.5 6.5 6.5 6.5 6.5 6.5 6.5 6.6 6.9 7.0 6.6 3.9 3.3 3.0 3.4 3.3 3.3 3.1 2.7 2.9 2.9 3.6 2.8 2.5 2.9 3.0 3.0 2.7 2.3 2.2 1.7 1.7 2.1 2.1
6.5 6.5 6.5 6.5 6.5 6.5 6.5 6.5 6.5 6.5 6.5 6.5 6.5 6.5 6.5 6.5 6.5 6.6 7.0 7.0 6.4 4.2 4.7 4.2 3.5 3.1 3.6 4.0 3.9 4.0 3.9 3.9 4.1 3.7 3.2 3.0 2.8 2.3 2.1 1.6 1.4 1.4 1.5 1.5
6.5 6.5 6.5 6.5 6.5 6.5 6.5 6.5 6.5 6.5 6.5 6.5 6.5 6.5 6.5 6.7 6.9 6.9 7.0 7.1 7.0 6.8 5.0 4.9 5.0 5.6 5.6 5.3 5.5 5.6 5.5 5.2 5.5 5.3 4.9 4.5 4.4 3.6 2.7 2.0 2.0 2.1 1.9 1.6
6.5 6.5 6.5 6.5 6.5 6.5 6.5 6.5 6.5 6.5 6.5 6.5 6.5 6.5 6.5 6.5 6.5 6.7 7.0 7.1 7.0 6.5 5.5 5.7 5.9 5.9 5.8 5.8 5.4 5.4 4.9 4.6 4.5 4.6 4.7 4.4 3.4 3.3 3.4 3.5 3.3 2.9 2.4 2.8
6.5 6.5 6.5 6.5 6.5 6.5 6.5 6.5 6.5 6.5 6.5 6.5 6.5 6.5 6.5 6.6 6.6 6.8 6.9 6.1 5.4 5.4 5.6 4.8 5.0 4.6 4.4 4.9 4.7 4.1 4.2 3.8 3.4 3.5 3.2 3.2 3.1 3.6 4.0 3.7 3.5 3.3 3.4 3.0
6.5 6.5 6.5 6.5 6.5 6.5 6.5 6.5 6.5 6.5 6.5 6.5 6.5 6.5 6.5 6.5 6.7 6.9 7.0 6.1 4.2 4.5 4.2 4.7 4.8 4.9 4.9 4.7 3.9 4.1 4.5 4.3 4.4 4.1 3.8 3.5 3.7 3.9 4.6 4.0 2.2 3.3 4.1 4.3
6.5 6.5 6.5 6.5 6.5 6.5 6.5 6.5 6.6 6.5 6.5 6.5 6.5 6.5 6.5 6.8 6.5 6.5 5.2 5.4 5.2 5.2 4.8 2.5 2.8 1.8 2.9 3.4 4.8 5.6 5.6 4.3 4.2 3.4 3.5 3.4 2.8 2.7 0.5 2.8 3.2 2.4 3.0 3.2
6.5 6.5 6.5 6.5 6.5 6.5 6.5 6.5 6.7 6.5 6.5 6.5 6.5 6.5 6.6 6.5 6.6 4.9 4.2 4.1 3.5 2.3 1.2 0.9 0.9 2.2 4.0 4.1 3.5 4.2 4.1 3.8 2.9 2.5 1.9 2.1 2.4 2.8 3.3 2.6 3.1 3.4 2.9 2.1
6.5 6.5 6.5 6.5 6.5 6.5 6.5 6.6 6.5 6.5 5.4 6.0 6.7 6.7 6.7 5.8 4.2 2.7 3.3 3.3 2.4 1.4 2.4 2.9 3.5 4.0 3.3 4.0 4.6 4.6 4.5 3.4 2.5 1.7 1.6 1.8 2.0 2.0 2.4 3.1 2.9 2.6 1.9 1.0
6.5 6.5 6.5 6.5 6.5 6.5 6.8 6.5 5.7 4.5 5.6 5.2 6.1 6.2 6.6 4.0 3.1 3.7 4.6 3.9 3.9 4.7 5.4 5.0 4.8 5.2 4.7 4.3 4.3 3.8 3.1 2.6 2.3 2.3 2.6 2.3 1.8 1.9 2.2 1.9 2.0 2.7 3.1 3.2
6.5 6.5 6.5 6.5 6.5 6.5 6.7 5.7 5.1 4.6 4.5 3.3 3.5 4.6 4.6 3.1 1.5 2.2 4.1 5.6 6.1 6.3 5.8 5.4 5.3 4.8 4.3 4.1 3.5 3.0 2.9 2.9 2.8 2.9 2.6 2.3 2.0 2.0 2.0 2.6 2.4 2.6 3.0 3.1
6.5 6.5 6.5 6.5 6.5 6.6 6.5 6.2 5.0 4.6 3.8 2.7 3.1 3.0 3.5 4.3 4.4 3.4 5.4 6.2 6.0 5.5 4.8 4.8 4.8 4.6 4.2 3.7 3.7 3.8 3.6 3.5 3.1 2.9 2.2 1.8 1.4 1.4 1.6 2.1 2.7 3.4 3.9 4.0
6.5 6.5 6.5 6.5 6.5 6.5 6.5 4.7 4.4 3.8 3.1 3.2 2.6 4.0 4.7 4.5 4.3 5.3 5.1 4.7 4.6 4.4 3.9 4.1 4.1 4.2 4.1 3.7 3.5 3.6 3.6 3.4 3.2 2.7 2.7 2.7 2.4 2.1 1.6 1.8 2.0 2.8 1.8 2.0
Wind_Speed
3 6 13 17 12 3 5 3 6 5 4 7 15 17 14 15 15 22 20 16 13 15 18 10 7 4 8 11 12 16 16 16 14 12 11 9 11 7 8 7 13 13 13 14
5 17 14 7 9 10 7 8 11 14 11 6 10 16 18 19 23 19 21 18 16 15 14 12 7 5 6 10 9 14 14 15 13 10 10 6 7 5 5 5 10 15 16 16
19 6 15 13 10 10 9 11 8 11 9 8 10 16 8 7 14 15 16 16 14 11 12 11 5 6 6 6 5 12 13 14 13 13 8 6 7 4 3 6 6 7 13 13
13 10 8 14 15 13 10 12 10 9 5 8 3 10 10 7 12 12 17 12 10 8 5 3 2 4 6 5 3 9 12 14 12 14 11 13 8 7 5 4 3 4 5 5
10 10 19 15 9 16 7 6 9 4 6 4 5 7 3 1 6 14 14 13 7 5 6 5 2 3 3 3 4 8 11 12 12 12 11 9 8 5 4 4 6 4 4 5
7 2 9 8 6 18 9 7 4 3 2 8 13 11 15 8 13 5 12 8 7 8 9 6 3 4 3 3 5 7 9 7 10 10 11 11 10 7 6 5 5 4 2 2
5 8 3 4 7 10 10 9 2 3 4 10 6 13 19 6 8 10 10 9 8 9 9 9 8 6 5 5 5 6 9 8 8 8 8 8 9 9 7 6 4 5 4 3
14 10 15 9 7 10 18 11 6 8 5 7 4 9 6 17 17 13 8 8 5 11 10 9 8 7 7 5 6 7 8 7 7 7 6 6 7 4 4 6 6 3 3 2
11 11 7 10 6 12 7 11 8 5 4 7 9 13 10 8 11 7 12 9 9 11 10 9 7 7 7 8 5 7 8 8 7 7 5 6 6 6 5 5 4 3 3 1
7 4 6 15 13 14 9 12 4 3 6 9 7 9 11 5 13 13 12 8 7 12 12 10 8 8 7 7 7 8 7 8 7 7 6 5 6 6 6 4 4 3 2 1
5 4 2 11 12 19 8 8 5 6 5 6 5 8 5 12 12 11 12 8 11 14 14 11 9 8 8 8 9 9 8 8 7 6 6 7 6 6 5 4 3 2 1 1
21 4 6 10 1 8 20 17 13 7 7 6 6 13 4 4 5 7 9 7 11 12 9 8 9 11 10 9 9 9 9 8 6 6 7 6 6 5 5 5 4 4 3 3
20 7 6 4 7 4 13 14 16 13 2 15 7 11 3 1 2 1 6 10 10 9 8 8 9 8 9 9 8 9 8 7 6 6 6 5 4 4 3 3 3 2 2 3
22 5 20 17 5 10 10 20 17 18 10 22 16 26 15 4 2 4 8 11 11 10 10 10 11 9 9 9 9 8 6 6 5 3 3 2 1 0 1 1 1 2 3 4
13 15 14 15 2 9 12 18 21 20 25 13 26 20 24 12 9 10 11 12 12 10 9 10 11 11 11 10 8 8 6 6 6 5 4 2 3 3 4 4 4 4 6 6
3 4 7 12 12 9 4 11 25 26 24 22 28 30 6 2 6 9 14 15 14 14 14 14 13 13 12 12 11 9 8 7 6 6 4 4 5 4 3 1 3 5 6 6
11 6 4 8 6 6 4 22 19 14 20 18 22 26 6 8 13 16 17 16 16 15 14 12 9 10 11 10 8 8 6 5 5 4 2 3 6 7 5 3 4 5 5 6
8 8 3 5 4 14 18 9 18 21 21 20 20 23 13 15 16 15 19 21 17 17 17 16 13 10 8 7 6 6 6 5 5 5 5 5 4 4 4 4 5 6 6 8
3 5 3 6 10 17 14 9 9 14 25 20 25 24 16 8 11 6 12 13 15 16 12 12 12 10 9 8 6 5 5 5 3 3 3 3 4 5 5 5 5 7 7 8
9 4 3 4 8 10 8 7 10 8 20 16 19 22 14 15 11 9 16 14 13 14 11 10 10 9 8 4 4 3 3 2 3 3 4 5 4 5 4 7 8 3 6 8
7 9 16 10 7 6 7 4 9 11 5 11 18 15 17 16 16 11 15 14 15 14 12 10 9 8 8 6 5 4 4 3 2 3 3 3 4 5 7 6 6 8 7 8
10 9 5 6 8 15 11 10 18 7 2 7 9 13 19 8 9 18 18 17 15 16 13 12 10 8 6 6 6 5 3 1 2 2 4 5 5 5 6 9 8 8 7 7
6 7 7 10 7 2 15 8 6 4 5 5 11 10 12 10 7 12 13 16 15 16 14 11 10 9 8 7 5 4 1 2 4 5 6 6 6 7 7 8 8 8 7 7
4 4 3 4 7 6 10 1 2 4 3 4 6 13 16 11 12 10 15 15 14 14 12 10 10 9 7 5 3 0 2 3 4 7 7 7 8 9 8 7 7 7 8 7
3 10 7 4 2 2 7 9 6 5 4 6 7 8 13 15 14 16 14 14 13 12 10 9 8 6 4 3 1 2 4 4 6 7 7 8 7 9 10 9 9 9 10 10
5 6 9 8 6 2 2 7 9 9 10 12 13 10 11 15 15 15 12 11 11 11 9 8 7 5 3 2 3 4 4 4 5 7 7 7 8 7 7 9 10 14 16 15
Wind_Direction
178 202 212 196 204 157 134 196 268 265 224 315 269 265 265 281 282 283 280 272 269 265 279 286 295 294 273 256 228 216 198 187 173 180 178 187 195 188 200 196 191 196 196 201
196 232 222 214 191 212 209 237 259 288 282 200 277 267 267 259 260 257 264 271 266 271 283 287 308 324 309 287 247 207 195 180 184 179 181 182 180 190 187 181 194 198 202 202
205 214 199 196 197 197 222 218 229 255 314 266 293 279 257 249 249 258 256 254 263 267 284 306 325 0 347 328 237 192 172 170 176 171 143 112 131 115 142 187 190 193 202 201
227 211 156 199 221 198 238 212 223 235 274 272 1 294 279 251 251 266 276 256 255 272 272 262 4 17 2 360 117 147 154 165 163 154 162 163 174 176 187 167 149 168 175 179
214 187 200 209 196 183 218 172 193 187 209 310 241 275 232 210 245 251 251 249 228 223 214 194 113 65 19 28 100 125 140 149 146 159 167 165 172 167 147 145 158 147 150 146
215 192 196 207 188 171 146 125 107 84 158 259 212 219 279 217 235 241 254 256 208 189 189 180 147 113 94 96 109 113 121 123 150 163 170 172 165 160 145 143 157 159 166 156
187 218 206 166 121 166 166 140 192 220 191 249 186 212 258 254 243 231 231 236 201 186 186 186 174 149 137 129 117 116 131 133 139 150 159 170 168 171 170 163 157 167 168 193
203 222 190 182 177 170 190 179 182 206 206 276 139 237 252 225 232 236 239 249 210 190 194 194 184 154 144 130 127 120 121 114 116 115 116 124 140 144 141 153 154 170 197 203
188 229 174 188 177 150 179 217 217 269 224 275 251 268 268 240 236 225 236 232 216 191 189 195 182 151 142 131 98 103 101 92 87 92 92 83 80 81 85 80 86 113 127 109
196 206 199 189 195 223 199 139 166 211 217 234 242 262 240 211 220 228 237 229 198 185 185 186 179 148 117 117 113 84 87 94 91 88 95 96 95 91 92 90 82 68 61 134
166 188 116 150 203 185 174 194 200 168 191 220 275 262 211 220 205 219 240 213 194 184 186 182 163 140 122 123 118 110 103 98 92 95 85 87 86 87 87 92 102 106 144 212
200 140 185 197 135 208 211 204 176 192 194 232 251 265 150 117 157 198 246 203 178 179 175 163 160 149 142 126 120 114 112 106 102 102 106 108 114 122 119 113 121 173 193 191
180 205 189 234 263 186 213 209 211 216 108 218 188 252 138 273 159 282 221 175 161 149 139 131 136 143 136 130 120 110 108 119 133 131 121 120 123 136 139 155 174 183 231 238
165 160 207 213 208 155 196 202 205 198 215 238 226 252 241 222 205 156 176 170 158 149 156 149 139 129 127 126 124 123 126 128 126 114 113 109 112 323 263 232 220 254 264 255
170 210 205 223 75 181 203 193 198 198 218 205 248 234 256 255 221 201 173 159 152 150 154 146 134 130 125 116 105 101 108 121 139 151 152 197 223 218 212 213 223 226 228 229
177 187 170 228 220 218 221 218 219 213 222 232 249 261 258 264 147 177 190 173 168 165 157 146 135 132 131 130 129 132 136 131 136 126 130 153 173 162 182 228 249 243 248 253
165 150 143 229 175 160 229 231 231 225 232 231 234 249 202 220 206 192 186 181 169 157 144 136 132 131 129 127 132 127 121 107 99 99 78 43 27 19 357 301 276 277 266 262
153 172 133 222 98 242 247 253 238 235 235 233 255 259 238 232 210 200 188 172 165 159 159 147 146 138 117 111 87 81 64 57 41 31 16 9 3 325 319 313 291 292 286 276
131 128 158 207 234 261 293 237 204 199 245 230 239 249 238 200 152 194 180 176 164 160 153 144 131 123 111 97 88 74 48 32 8 348 333 331 324 306 305 311 296 288 295 284
166 114 179 133 230 238 245 228 203 190 257 209 218 231 192 154 207 210 174 153 144 142 144 115 104 95 84 78 111 166 217 262 277 306 310 309 298 283 296 302 304 278 263 261
201 202 215 207 224 254 225 202 143 183 263 204 204 212 177 194 216 140 144 145 149 145 138 119 112 136 173 177 167 192 200 223 231 264 270 295 311 310 299 293 279 284 272 264
171 172 186 200 220 248 154 172 200 212 230 192 196 184 191 174 126 149 159 156 153 148 151 151 160 184 175 167 174 182 225 226 277 307 319 306 308 308 301 296 296 283 271 260
195 190 181 192 206 169 189 205 188 181 182 202 184 177 171 138 147 148 154 155 164 158 167 169 168 159 160 166 170 188 213 324 325 320 310 304 297 300 295 290 285 289 283 274
227 183 199 132 214 211 206 190 204 202 220 177 170 164 165 147 147 146 158 161 158 159 153 153 154 158 161 159 132 27 314 305 294 290 298 310 304 300 293 291 288 287 281 271
170 158 170 253 262 293 231 219 187 188 173 135 138 154 158 147 161 152 153 153 155 146 143 154 161 161 152 147 243 285 267 278 286 296 302 304 304 306 304 294 290 280 269 262
190 175 189 214 168 146 220 179 182 178 176 159 143 135 149 146 146 146 144 145 147 149 148 147 148 157 170 213 259 269 288 299 301 295 292 289 288 286 283 286 287 265 262 258